Time,TemperatureF,DewpointF,PressureIn,WindDirection,WindDirectionDegrees,WindSpeedMPH,WindSpeedGustMPH,Humidity,HourlyPrecipIn,Conditions,Clouds,dailyrainin,SoftwareType,DateUTC
2013-08-15 00:12:00,58.0,49.0,-100.00,NE,40,6.0,10.0,74,0.00,,,0.00,,2013-08-15 04:12:00,
2013-08-15 00:23:00,58.0,49.0,-100.00,NE,42,5.0,8.0,74,0.00,,,0.00,,2013-08-15 04:23:00,
2013-08-15 00:43:00,58.0,49.0,-100.00,NE,51,5.0,9.0,74,0.00,,,0.00,,2013-08-15 04:43:00,
2013-08-15 00:52:00,58.0,49.0,-100.00,NE,51,7.0,12.0,72,0.00,,,0.00,,2013-08-15 04:52:00,
2013-08-15 01:12:00,58.0,49.0,-100.00,ENE,58,9.0,13.0,73,0.00,,,0.00,,2013-08-15 05:12:00,
2013-08-15 01:22:00,58.0,49.0,-100.00,NE,41,6.0,11.0,73,0.00,,,0.00,,2013-08-15 05:22:00,
2013-08-15 01:42:00,57.0,49.0,-100.00,NE,44,6.0,11.0,74,0.00,,,0.00,,2013-08-15 05:42:00,
2013-08-15 01:52:00,57.0,49.0,-100.00,NE,48,7.0,12.0,75,0.00,,,0.00,,2013-08-15 05:52:00,
2013-08-15 02:11:00,57.0,49.0,-100.00,NE,47,7.0,11.0,74,0.00,,,0.00,,2013-08-15 06:11:00,
2013-08-15 02:21:00,57.0,49.0,-100.00,NE,45,6.0,11.0,74,0.00,,,0.00,,2013-08-15 06:21:00,
2013-08-15 02:42:00,57.0,49.0,-100.00,NE,38,6.0,10.0,74,0.00,,,0.00,,2013-08-15 06:42:00,
2013-08-15 03:11:00,57.0,49.0,-100.00,ENE,62,5.0,9.0,74,0.00,,,0.00,,2013-08-15 07:11:00,
2013-08-15 03:21:00,56.0,49.0,-100.00,NNE,30,5.0,8.0,76,0.00,,,0.00,,2013-08-15 07:21:00,
2013-08-15 03:42:00,56.0,48.0,-100.00,NE,44,6.0,11.0,75,0.00,,,0.00,,2013-08-15 07:42:00,
2013-08-15 03:52:00,56.0,48.0,-100.00,NNE,25,6.0,9.0,75,0.00,,,0.00,,2013-08-15 07:52:00,
2013-08-15 04:11:00,56.0,48.0,-100.00,ENE,65,5.0,7.0,75,0.00,,,0.00,,2013-08-15 08:11:00,
2013-08-15 04:42:00,55.0,49.0,-100.00,East,83,4.0,7.0,82,0.00,,,0.00,,2013-08-15 08:42:00,
2013-08-15 04:52:00,55.0,49.0,-100.00,East,83,4.0,7.0,79,0.00,,,0.00,,2013-08-15 08:52:00,
2013-08-15 05:11:00,55.0,49.0,-100.00,NNE,27,5.0,10.0,82,0.00,,,0.00,,2013-08-15 09:11:00,
2013-08-15 05:21:00,54.0,49.0,-100.00,NE,47,5.0,9.0,84,0.00,,,0.00,,2013-08-15 09:21:00,
2013-08-15 05:42:00,54.0,50.0,-100.00,East,83,2.0,4.0,85,0.00,,,0.00,,2013-08-15 09:42:00,
2013-08-15 05:53:00,54.0,50.0,-100.00,NNE,24,4.0,7.0,83,0.00,,,0.00,,2013-08-15 09:53:00,
2013-08-15 06:12:00,55.0,50.0,-100.00,ENE,65,2.0,4.0,83,0.00,,,0.00,,2013-08-15 10:12:00,
2013-08-15 06:22:00,54.0,50.0,-100.00,East,99,3.0,6.0,86,0.00,,,0.00,,2013-08-15 10:22:00,
2013-08-15 06:42:00,54.0,49.0,-100.00,NE,41,4.0,6.0,82,0.00,,,0.00,,2013-08-15 10:42:00,
2013-08-15 06:52:00,54.0,50.0,-100.00,NNW,336,3.0,4.0,85,0.00,,,0.00,,2013-08-15 10:52:00,
2013-08-15 07:12:00,54.0,50.0,-100.00,SW,233,1.0,2.0,88,0.00,,,0.00,,2013-08-15 11:12:00,
2013-08-15 07:42:00,53.0,50.0,-100.00,ENE,64,1.0,3.0,87,0.00,,,0.00,,2013-08-15 11:42:00,
2013-08-15 08:11:00,53.0,51.0,-100.00,NNW,329,1.0,2.0,90,0.00,,,0.00,,2013-08-15 12:11:00,
2013-08-15 08:21:00,54.0,50.0,-100.00,NNW,346,2.0,4.0,87,0.00,,,0.00,,2013-08-15 12:21:00,
2013-08-15 08:42:00,55.0,51.0,-100.00,NNW,346,3.0,5.0,84,0.00,,,0.00,,2013-08-15 12:42:00,
2013-08-15 08:52:00,56.0,51.0,-100.00,NNW,344,2.0,4.0,83,0.00,,,0.00,,2013-08-15 12:52:00,
2013-08-15 09:11:00,59.0,53.0,-100.00,SSW,196,0.0,2.0,82,0.00,,,0.00,,2013-08-15 13:11:00,
2013-08-15 09:21:00,59.0,53.0,-100.00,SW,220,1.0,2.0,81,0.00,,,0.00,,2013-08-15 13:21:00,
2013-08-15 09:42:00,60.0,54.0,-100.00,SSE,152,1.0,2.0,81,0.00,,,0.00,,2013-08-15 13:42:00,
2013-08-15 09:52:00,61.0,54.0,-100.00,WSW,237,2.0,3.0,79,0.00,,,0.00,,2013-08-15 13:52:00,
2013-08-15 10:13:00,64.0,56.0,-100.00,SSW,200,1.0,2.0,75,0.00,,,0.00,,2013-08-15 14:13:00,
2013-08-15 10:22:00,64.0,55.0,-100.00,SSE,155,2.0,3.0,72,0.00,,,0.00,,2013-08-15 14:22:00,
2013-08-15 10:45:00,65.0,58.0,-100.00,South,169,1.0,2.0,78,0.00,,,0.00,,2013-08-15 14:45:00,
2013-08-15 10:56:00,67.0,56.0,-100.00,WNW,287,1.0,2.0,68,0.00,,,0.00,,2013-08-15 14:56:00,
2013-08-15 11:16:00,67.0,57.0,-100.00,SSE,167,1.0,2.0,72,0.00,,,0.00,,2013-08-15 15:16:00,
2013-08-15 11:43:00,69.0,56.0,-100.00,SSW,205,2.0,4.0,65,0.00,,,0.00,,2013-08-15 15:43:00,
2013-08-15 11:54:00,69.0,58.0,-100.00,SW,232,2.0,3.0,67,0.00,,,0.00,,2013-08-15 15:54:00,
2013-08-15 12:16:00,70.0,56.0,-100.00,SW,234,2.0,3.0,63,0.00,,,0.00,,2013-08-15 16:16:00,
2013-08-15 12:26:00,71.0,58.0,-100.00,SE,138,1.0,3.0,64,0.00,,,0.00,,2013-08-15 16:26:00,
2013-08-15 12:44:00,70.0,58.0,-100.00,SW,236,3.0,5.0,68,0.00,,,0.00,,2013-08-15 16:44:00,
2013-08-15 12:55:00,71.0,58.0,-100.00,WSW,237,4.0,10.0,63,0.00,,,0.00,,2013-08-15 16:55:00,
2013-08-15 13:18:00,71.0,58.0,-100.00,SSW,200,4.0,8.0,62,0.00,,,0.00,,2013-08-15 17:18:00,
2013-08-15 13:31:00,72.0,-99.9,-100.00,WSW,239,5.0,9.0,63,0.00,,,0.00,,2013-08-15 17:31:00,
2013-08-15 13:55:00,73.0,58.0,-100.00,SSW,198,2.0,4.0,59,0.00,,,0.00,,2013-08-15 17:55:00,
2013-08-15 14:00:00,-999.0,-99.9,-100.00,SW,234,5.0,9.0,-999,-99.99,,,-99.99,,2013-08-15 18:00:00,
2013-08-15 14:28:00,74.0,60.0,-100.00,SW,234,5.0,9.0,60,0.00,,,0.00,,2013-08-15 18:28:00,
2013-08-15 14:36:00,-999.0,-99.9,-100.00,WSW,256,4.0,6.0,-999,0.00,,,0.00,,2013-08-15 18:36:00,
2013-08-15 14:49:00,75.0,61.0,-100.00,South,181,2.0,4.0,62,0.00,,,0.00,,2013-08-15 18:49:00,
2013-08-15 15:07:00,-999.0,-99.9,-100.00,South,191,3.0,7.0,-999,0.00,,,0.00,,2013-08-15 19:07:00,
2013-08-15 15:18:00,74.0,60.0,-100.00,SW,227,4.0,6.0,62,0.00,,,0.00,,2013-08-15 19:18:00,
2013-08-15 15:34:00,-999.0,-99.9,-100.00,SW,216,2.0,3.0,-999,-99.99,,,-99.99,,2013-08-15 19:34:00,
2013-08-15 15:49:00,75.0,57.0,-100.00,SW,222,4.0,7.0,54,0.00,,,0.00,,2013-08-15 19:49:00,
2013-08-15 16:14:00,74.0,56.0,-100.00,SW,217,2.0,4.0,55,0.00,,,0.00,,2013-08-15 20:14:00,
2013-08-15 16:45:00,77.0,60.0,-100.00,SW,227,2.0,4.0,57,0.00,,,0.00,,2013-08-15 20:45:00,
2013-08-15 17:05:00,75.0,57.0,-100.00,SW,236,3.0,6.0,53,0.00,,,0.00,,2013-08-15 21:05:00,
2013-08-15 17:17:00,71.0,60.0,-100.00,SE,136,2.0,4.0,69,0.00,,,0.00,,2013-08-15 21:17:00,
2013-08-15 17:41:00,71.0,60.0,-100.00,NE,47,2.0,4.0,67,0.00,,,0.00,,2013-08-15 21:41:00,
2013-08-15 17:49:00,74.0,63.0,-100.00,SW,227,2.0,4.0,69,0.00,,,0.00,,2013-08-15 21:49:00,
2013-08-15 17:57:00,74.0,60.0,-100.00,SE,124,1.0,1.0,62,0.00,,,0.00,,2013-08-15 21:57:00,
2013-08-15 18:17:00,74.0,59.0,-100.00,WSW,250,3.0,4.0,60,0.00,,,0.00,,2013-08-15 22:17:00,
2013-08-15 18:49:00,72.0,60.0,-100.00,ENE,75,4.0,6.0,66,0.00,,,0.00,,2013-08-15 22:49:00,
2013-08-15 18:58:00,72.0,62.0,-100.00,South,191,1.0,2.0,69,0.00,,,0.00,,2013-08-15 22:58:00,
2013-08-15 19:16:00,74.0,61.0,-100.00,SW,227,1.0,2.0,65,0.00,,,0.00,,2013-08-15 23:16:00,
2013-08-15 19:35:00,-999.0,-99.9,-100.00,SSW,208,1.0,3.0,72,0.00,,,0.00,,2013-08-15 23:35:00,
2013-08-15 19:48:00,70.0,61.0,-100.00,SSW,208,1.0,3.0,72,0.00,,,0.00,,2013-08-15 23:48:00,
2013-08-15 20:12:00,70.0,60.0,-100.00,NE,37,2.0,4.0,70,0.00,,,0.00,,2013-08-16 00:12:00,
2013-08-15 20:24:00,70.0,60.0,-100.00,NNE,24,2.0,3.0,70,0.00,,,0.00,,2013-08-16 00:24:00,
2013-08-15 20:46:00,69.0,60.0,-100.00,NNE,28,2.0,4.0,73,0.00,,,0.00,,2013-08-16 00:46:00,
2013-08-15 20:52:00,69.0,61.0,-100.00,NE,49,2.0,3.0,76,0.00,,,0.00,,2013-08-16 00:52:00,
2013-08-15 21:21:00,68.0,60.0,-100.00,NE,52,4.0,6.0,75,0.00,,,0.00,,2013-08-16 01:21:00,
2013-08-15 21:26:00,68.0,60.0,-100.00,NNE,28,2.0,4.0,77,0.00,,,0.00,,2013-08-16 01:26:00,
2013-08-15 21:43:00,-999.0,-99.9,-100.00,NE,42,3.0,-999.0,-999,-99.99,,,-99.99,,2013-08-16 01:43:00,
2013-08-15 22:12:00,67.0,60.0,-100.00,NNE,21,3.0,6.0,80,0.00,,,0.00,,2013-08-16 02:12:00,
2013-08-15 22:22:00,67.0,61.0,-100.00,NE,42,4.0,6.0,80,0.00,,,0.00,,2013-08-16 02:22:00,
2013-08-15 22:44:00,67.0,60.0,-100.00,NE,40,3.0,5.0,80,0.00,,,0.00,,2013-08-16 02:44:00,
2013-08-15 22:52:00,66.0,60.0,-100.00,NE,35,2.0,5.0,79,0.00,,,0.00,,2013-08-16 02:52:00,
2013-08-15 23:11:00,67.0,60.0,-100.00,NE,40,3.0,7.0,78,0.00,,,0.00,,2013-08-16 03:11:00,
2013-08-15 23:22:00,67.0,60.0,-100.00,North,1,2.0,4.0,78,0.00,,,0.00,,2013-08-16 03:22:00,
2013-08-15 23:43:00,67.0,60.0,-100.00,North,357,2.0,3.0,79,0.00,,,0.00,,2013-08-16 03:43:00,
2013-08-15 23:53:00,66.0,60.0,-100.00,NE,34,2.0,4.0,78,0.00,,,0.00,,2013-08-16 03:53:00,